Oak Ridge, TN

8:25 AM EST on November 12, 2019 (GMT -0500)
Oak Ridge

Weather History for KOQT - September, 2019

Change the Weather History Date:

Wednesday, September 4, 2019

  Actual Average (KTYS) Record (KTYS)
Temperature  
Mean Temperature 80 °F -  
Max Temperature 93 °F 84 °F 101 °F (1954)
Min Temperature 68 °F 64 °F 51 °F (1952)
Cooling Degree Days 14    
Growing Degree Days 30 (Base 50)    
Moisture  
Dew Point 67 °F    
Average Humidity 78    
Maximum Humidity 96    
Minimum Humidity 44    
Precipitation  
Precipitation 0.00 in - - ()
Sea Level Pressure  
Sea Level Pressure 30.02 in    
Wind  
Wind Speed 1 mph ()    
Max Wind Speed 5 mph    
Max Gust Speed -    
Visibility 6.7 miles    
Events Fog    
Averages and records for this station are not official NWS values.
T = Trace of Precipitation, MM = Missing Value Source: Averaged Metar Reports

Daily Weather History Graph

Daily Weather History Graph

Search for Another Location

Airport or City:

Astronomy

Sep. 04, 2019 Rise Set
Actual Time 7:10 AM EDT 8:00 PM EDT
Civil Twilight 6:44 AM EDT 8:26 PM EDT
Nautical Twilight 6:13 AM EDT 8:57 PM EDT
Astronomical Twilight 5:42 AM EDT 9:29 PM EDT
Moon 1:00 PM EDT (9/4) 11:46 PM EDT (9/4)
Length of Visible Light 13h 41m
Length of Day
12h 49m
Waxing Crescent, 34% of the Moon is Illuminated
Sep 4
Waxing Crescent
Sep 5
First Quarter
Sep 14
Full
Sep 21
Last Quarter
Sep 28
New

Hourly Weather History & Observations

Time (EDT) Temp. Heat Index Dew Point Humidity Pressure Visibility Wind Dir Wind Speed Gust Speed Precip Events Conditions
12:53 AM 73.0 °F - 68.0 °F 84% 29.98 in 10.0 mi NW 4.6 mph - N/A   Clear
1:53 AM 72.0 °F - 68.0 °F 87% 29.98 in 10.0 mi Calm Calm - N/A   Clear
2:53 AM 72.0 °F - 68.0 °F 87% 29.96 in 10.0 mi Calm Calm - N/A   Clear
3:53 AM 70.0 °F - 66.9 °F 90% 29.97 in 10.0 mi Calm Calm - N/A   Clear
4:30 AM 69.1 °F - 66.0 °F 90% 30.03 in 7.0 mi Calm Calm - N/A   Scattered Clouds
4:53 AM 69.1 °F - 66.0 °F 90% 29.99 in 8.0 mi Calm Calm - N/A   Mostly Cloudy
5:10 AM 69.1 °F - 66.0 °F 90% 30.05 in 7.0 mi Calm Calm - N/A   Scattered Clouds
5:53 AM 69.1 °F - 66.0 °F 90% 30.01 in 8.0 mi Calm Calm - N/A   Partly Cloudy
6:08 AM 69.1 °F - 66.0 °F 90% 30.07 in 4.0 mi Calm Calm - N/A   Mostly Cloudy
6:15 AM 69.8 °F - 66.2 °F 88% 30.07 in 1.8 mi Calm Calm - N/A   Mostly Cloudy
6:22 AM 69.1 °F - 66.0 °F 90% 30.08 in 3.0 mi Calm Calm - N/A   Mostly Cloudy
6:41 AM 68.0 °F - 66.0 °F 93% 30.09 in 1.5 mi Calm Calm - N/A   Mostly Cloudy
6:50 AM 68.0 °F - 66.2 °F 94% 30.09 in 0.5 mi Calm Calm - N/A Fog Fog
6:53 AM 68.0 °F - 66.0 °F 93% 30.04 in 0.5 mi Calm Calm - N/A Fog Fog
7:04 AM 68.0 °F - 66.0 °F 93% 30.09 in 1.5 mi Calm Calm - N/A   Overcast
7:32 AM 68.0 °F - 66.0 °F 93% 30.11 in 0.5 mi Calm Calm - N/A Fog Fog
7:53 AM 68.0 °F - 66.9 °F 96% 30.07 in 0.5 mi Calm Calm - N/A Fog Fog
8:53 AM 70.0 °F - 68.0 °F 93% 30.08 in 0.5 mi Calm Calm - N/A Fog Fog
9:04 AM 70.0 °F - 68.0 °F 93% 30.11 in 1.5 mi Calm Calm - N/A   Overcast
9:13 AM 70.0 °F - 68.0 °F 93% 30.11 in 3.0 mi Calm Calm - N/A   Overcast
9:53 AM 71.1 °F - 69.1 °F 93% 30.07 in 10.0 mi Calm Calm - N/A   Scattered Clouds
10:53 AM 81.0 °F 84.1 °F 69.1 °F 67% 30.05 in 10.0 mi Calm Calm - N/A   Clear
12:53 PM 87.1 °F 89.9 °F 66.9 °F 51% 30.03 in 10.0 mi Calm Calm - N/A   Clear
1:53 PM 89.1 °F 92.1 °F 66.9 °F 48% 30.01 in 10.0 mi Calm Calm - N/A   Clear
2:53 PM 90.0 °F 92.8 °F 66.9 °F 46% 29.99 in 10.0 mi East 4.6 mph - N/A   Clear
3:53 PM 91.9 °F 95.4 °F 66.9 °F 44% 29.97 in 10.0 mi Calm Calm - N/A   Clear
4:53 PM 90.0 °F 92.4 °F 66.0 °F 45% 29.96 in 10.0 mi Calm Calm - N/A   Clear
5:53 PM 91.9 °F 95.4 °F 66.9 °F 44% 29.95 in 10.0 mi SE 3.5 mph - N/A   Partly Cloudy
6:53 PM 91.0 °F 95.2 °F 68.0 °F 47% 29.96 in 10.0 mi Calm Calm - N/A   Clear
7:53 PM 88.0 °F 91.4 °F 68.0 °F 51% 29.95 in 10.0 mi Calm Calm - N/A   Clear
8:53 PM 82.9 °F 87.0 °F 70.0 °F 65% 29.96 in 10.0 mi Calm Calm - N/A   Clear
9:53 PM 80.1 °F 83.6 °F 71.1 °F 74% 29.97 in 10.0 mi Calm Calm - N/A   Clear
10:53 PM 78.1 °F - 71.1 °F 79% 29.96 in 10.0 mi Calm Calm - N/A   Clear
11:53 PM 75.9 °F - 71.1 °F 85% 29.95 in 10.0 mi Calm Calm - N/A   Clear